Lid_Strength_Index
-1 2 -0 3 10 11 14 12 9 9 9 7 7 9 9 8 8 11 2 1 0 0 -1 -1 -1 -1 -1 -1 -1 -2 -2 -2 -2 -2 -2 -2 -2 -2 -2 -2 -2 -2 -2 -2 -2 -2 -2 -2 -2
1 2 2 6 13 16 14 10 10 8 7 7 6 7 7 8 5 4 3 0 -0 -0 -1 -1 -0 -1 -1 -1 -1 -1 -1 -2 -2 -2 -2 -2 -2 -2 -2 -2 -3 -3 -3 -2 -2 -2 -2 -2 -2
2 1 6 10 13 15 14 10 9 7 7 6 6 5 6 6 4 4 1 0 -0 -0 -1 -1 -0 -1 -1 -1 -1 -1 -1 -2 -2 -2 -2 -2 -2 -2 -2 -2 -2 -3 -2 -2 -2 -2 -2 -2 -2
4 4 6 12 14 12 11 9 8 7 6 7 6 7 5 3 3 2 0 -0 0 -0 -1 -0 -0 -1 -1 -1 -1 -1 -2 -2 -2 -2 -2 -2 -2 -2 -2 -2 -3 -3 -2 -2 -2 -2 -2 -2 -2
3 6 12 14 13 11 9 7 7 8 7 7 6 8 6 3 1 1 1 0 1 0 -1 -1 -0 -1 -1 -1 -1 -1 -1 -2 -1 -2 -2 -2 -2 -2 -2 -2 -3 -2 -2 -2 -2 -2 -2 -2 -2
7 7 14 15 12 10 8 7 7 8 7 6 7 7 6 2 2 1 0 1 -0 0 -0 -1 1 0 -1 -1 -1 -1 -1 -1 -1 -1 -2 -2 -2 -2 -2 -2 -2 -2 -2 -2 -2 -2 -2 -2 -2
8 11 13 13 12 11 9 6 8 8 8 7 5 8 5 4 2 1 1 0 0 0 -0 -1 -1 -0 1 0 -0 -1 -1 -1 -1 -1 -1 -1 -1 -2 -2 -2 -2 -2 -2 -2 -2 -2 -1 -1 -1
6 9 12 12 13 13 8 7 6 7 8 5 5 8 7 4 2 1 1 1 0 0 -0 -0 -1 -1 -1 -1 1 1 0 -0 -0 -0 -0 0 -0 -1 -1 -1 -1 -2 -2 -2 -2 -1 -1 -1 -1
5 11 14 12 12 11 7 8 6 5 6 5 5 5 4 2 2 2 2 2 1 1 0 0 -0 -1 -1 -1 1 1 1 1 1 1 1 1 -1 -1 -0 -0 -1 -2 -2 -2 -1 -1 -1 -1 -1
9 12 13 10 9 10 9 9 8 8 7 7 6 4 3 3 3 3 4 4 3 2 1 0 1 -0 -1 -1 -0 -1 -1 -1 -1 -0 -1 -0 -1 -1 -1 1 0 -1 -1 -2 -1 -1 0 1 1
10 14 11 10 9 9 9 9 8 8 9 7 8 8 5 4 4 4 3 3 3 2 1 1 0 -0 -0 -0 -0 -0 -1 -0 -1 -1 -1 -1 -0 -1 -1 -1 -1 -1 1 -1 0 1 1 1 1
12 11 10 10 9 10 10 9 10 9 9 5 7 8 7 4 4 4 4 3 3 2 1 1 1 0 -0 -0 -0 -0 1 0 0 0 0 0 0 0 0 -0 -0 -0 0 1 1 1 1 2 2
13 12 11 9 10 10 10 11 11 11 9 8 7 6 6 5 4 3 3 2 2 2 2 1 0 0 -0 -0 0 0 -0 0 0 1 1 1 1 1 1 1 2 2 3 3 2 2 2 2 2
11 11 12 11 11 10 11 12 11 11 8 8 6 6 7 5 4 3 3 3 2 2 2 1 1 0 -0 0 0 1 0 0 1 1 1 1 1 1 1 2 3 3 3 3 2 2 2 2 2
10 13 12 12 11 12 10 14 14 11 9 10 9 8 7 6 4 4 3 3 2 2 1 1 1 0 0 0 -0 1 1 2 2 2 2 2 1 2 2 2 2 2 3 2 2 2 2 2 2
11 11 15 12 10 10 11 18 14 12 10 10 9 8 7 4 5 3 2 2 2 2 2 1 1 1 0 0 -0 0 1 1 2 2 2 2 1 1 2 2 2 2 2 2 2 2 2 2 2
12 18 16 14 10 10 11 16 14 12 12 13 12 9 6 5 4 3 2 2 2 2 1 1 1 1 1 0 0 1 2 2 2 2 2 2 1 1 2 2 2 3 3 2 2 2 2 2 2
19 17 16 16 13 11 12 13 13 11 11 12 11 10 9 8 4 3 3 3 2 1 1 1 1 1 1 1 0 1 2 2 2 2 2 1 0 1 1 1 1 2 2 2 2 1 1 1 2
13 16 17 14 12 12 12 12 13 12 12 11 10 9 6 6 4 3 3 4 2 2 2 1 1 1 1 1 1 2 2 3 3 2 2 1 0 1 1 1 1 1 1 1 1 1 1 1 2
14 16 17 14 12 13 13 13 12 13 13 12 11 10 7 6 5 4 5 6 6 2 2 2 1 1 1 1 1 1 1 2 2 3 1 0 1 1 1 1 1 1 1 1 1 1 1 1 2
14 15 16 15 13 12 13 14 13 12 12 12 11 10 10 6 6 6 7 8 8 7 4 2 1 1 1 1 1 1 1 2 3 3 2 1 1 1 1 1 1 1 1 1 1 1 1 2 2
15 12 13 13 14 18 13 19 14 13 13 12 12 10 10 6 6 7 8 9 9 10 8 7 2 1 1 1 1 2 2 3 2 2 1 1 1 1 1 1 1 1 1 0 0 1 1 2 3
13 11 12 12 14 15 16 17 16 12 14 13 11 10 6 7 8 9 9 9 10 11 9 8 6 5 5 1 1 1 2 2 1 1 1 1 1 1 1 1 1 0 0 0 0 1 1 1 2
10 11 12 12 14 19 17 17 18 14 14 13 11 8 9 9 10 9 10 10 10 10 10 9 8 8 8 6 4 3 2 2 2 2 2 1 2 1 1 1 0 0 0 0 0 1 1 2 2
12 16 20 21 20 22 19 18 16 12 10 11 9 10 10 10 10 11 11 11 11 11 11 10 10 11 10 9 8 8 7 2 2 2 2 2 2 1 1 1 1 1 1 0 0 1 1 2 2
14 16 21 26 23 21 16 19 15 11 10 8 9 11 11 11 11 11 12 12 12 12 12 12 11 12 11 11 11 10 10 8 4 4 2 3 4 5 5 5 2 2 2 2 2 3 6 5 5
14 17 13 17 16 19 17 15 12 11 12 11 11 12 12 12 12 12 12 12 13 13 13 12 12 12 12 11 12 12 11 11 11 9 9 9 9 8 8 8 9 8 7 8 7 8 9 9 10
13 11 17 17 22 23 19 18 18 15 14 14 14 14 14 13 14 13 13 12 13 13 13 13 13 13 13 12 12 12 12 12 12 12 12 11 11 10 10 10 10 11 10 10 10 11 12 12 12
13 15 14 15 16 21 21 19 15 15 14 14 14 14 14 14 13 14 13 12 13 13 13 13 13 13 13 13 13 12 12 12 12 13 13 13 12 12 12 12 12 12 12 12 12 13 13 14 14
12 14 14 18 19 17 19 20 15 13 13 14 14 14 14 14 14 13 13 13 14 14 14 14 14 14 13 13 13 13 13 13 14 14 14 13 14 13 13 13 13 13 13 13 13 14 14 15 16